TIANLIAN 1-02

Last updated on Mon Jan 22 2024 00:02:38 GMT+0000 (Coordinated Universal Time)

1 37737U 11032A 24021.53113552 -.00000250 00000+0 00000+0 0 9994 2 37737 3.3430 73.6593 0006927 227.5572 173.2037 0.99000260 45917
UTC large
Height (km)
Speed (km/s)
/
Latitude / Longitude
Inclination (degrees)
Orbital Period (minutes)
Azimuth
Elevation
Range (km)
Doppler Factor

Next 0 passes for location: London (51.5072 / 0.1276)

Sorry there are no passes over London.